�������l�o���
Date,Time,MP-1(��Sv/h),MP-2(��Sv/h),MP-3(��Sv/h),MP-4(��Sv/h),MP-5(��Sv/h),MP-6(��Sv/h),MP-7(��Sv/h),MP-8(��Sv/h),����,����(m/s),���J
2024/04/28,00:00,0.508,0.770,0.484,0.955,0.691,0.315,0.554,0.517,��쓌,2.5,��
2024/04/28,00:10,0.508,0.771,0.486,0.956,0.691,0.316,0.554,0.517,��쓌,3.1,��
2024/04/28,00:20,0.507,0.770,0.485,0.956,0.691,0.315,0.552,0.518,��쓌,2.5,��
2024/04/28,00:30,0.507,0.771,0.485,0.954,0.692,0.316,0.553,0.516,��쓌,3.2,��
2024/04/28,00:40,0.507,0.771,0.486,0.957,0.692,0.315,0.553,0.517,��쓌,2.2,��
2024/04/28,00:50,0.506,0.771,0.483,0.955,0.691,0.315,0.551,0.517,��쓌,2.8,��
2024/04/28,01:00,0.509,0.772,0.485,0.955,0.691,0.315,0.552,0.518,��,2.0,��
2024/04/28,01:10,0.507,0.772,0.485,0.955,0.691,0.315,0.552,0.517,��쓌,2.6,��
2024/04/28,01:20,0.509,0.771,0.486,0.954,0.692,0.316,0.552,0.516,��쓌,2.3,��
2024/04/28,01:30,0.507,0.772,0.487,0.956,0.693,0.317,0.551,0.517,��,1.5,��
2024/04/28,01:40,0.507,0.771,0.485,0.954,0.694,0.315,0.552,0.517,��쓌,1.7,��
2024/04/28,01:50,0.507,0.771,0.485,0.954,0.693,0.315,0.552,0.516,��쓌,1.5,��
2024/04/28,02:00,0.507,0.770,0.486,0.955,0.693,0.316,0.553,0.518,��쓌,2.0,��
2024/04/28,02:10,0.508,0.772,0.486,0.956,0.693,0.315,0.553,0.517,��쐼,1.1,��
2024/04/28,02:20,0.506,0.774,0.485,0.955,0.693,0.315,0.554,0.517,���쐼,1.1,��
2024/04/28,02:30,0.509,0.769,0.486,0.957,0.693,0.315,0.551,0.517,��쐼,1.1,��
2024/04/28,02:40,0.508,0.773,0.484,0.956,0.692,0.316,0.553,0.517,��,1.2,��
2024/04/28,02:50,0.507,0.772,0.489,0.957,0.692,0.317,0.553,0.519,�쐼,1.2,��
2024/04/28,03:00,0.509,0.771,0.487,0.956,0.692,0.316,0.553,0.518,�쐼,1.2,��
2024/04/28,03:10,0.509,0.771,0.488,0.957,0.692,0.316,0.552,0.518,�쐼,1.4,��
2024/04/28,03:20,0.510,0.771,0.486,0.956,0.692,0.317,0.551,0.517,��,1.5,��
2024/04/28,03:30,0.510,0.774,0.487,0.958,0.693,0.317,0.553,0.517,�k�k��,3.2,��
2024/04/28,03:40,0.510,0.773,0.486,0.957,0.690,0.317,0.552,0.518,�k�k��,3.9,��
2024/04/28,03:50,0.509,0.775,0.486,0.957,0.692,0.317,0.552,0.518,�k�k��,3.4,��
2024/04/28,04:00,0.507,0.772,0.486,0.957,0.694,0.315,0.552,0.517,�k,3.6,��
2024/04/28,04:10,0.508,0.773,0.487,0.955,0.693,0.316,0.551,0.517,�k�k��,4.6,��
2024/04/28,04:20,0.508,0.770,0.486,0.956,0.691,0.316,0.554,0.518,�k�k��,4.3,��
2024/04/28,04:30,0.508,0.773,0.485,0.955,0.691,0.316,0.552,0.518,�k,4.6,��
2024/04/28,04:40,0.507,0.772,0.486,0.956,0.692,0.317,0.551,0.516,�k�k��,4.9,��
2024/04/28,04:50,0.507,0.772,0.486,0.956,0.693,0.315,0.552,0.517,�k�k��,4.7,��
2024/04/28,05:00,0.508,0.775,0.486,0.959,0.693,0.317,0.552,0.520,�k�k��,5.0,��
2024/04/28,05:10,0.508,0.772,0.488,0.956,0.691,0.316,0.551,0.518,�k,5.7,��
2024/04/28,05:20,0.508,0.773,0.486,0.957,0.693,0.315,0.551,0.517,�k,5.4,��
2024/04/28,05:30,0.508,0.773,0.487,0.952,0.692,0.316,0.552,0.518,�k,5.0,��
2024/04/28,05:40,0.508,0.773,0.488,0.954,0.691,0.315,0.552,0.518,�k,5.2,��
2024/04/28,05:50,0.509,0.774,0.485,0.955,0.692,0.316,0.551,0.520,�k,4.7,��
2024/04/28,06:00,0.508,0.769,0.486,0.956,0.691,0.315,0.553,0.518,�k,3.5,��
2024/04/28,06:10,0.507,0.770,0.485,0.955,0.692,0.316,0.552,0.518,�k,3.2,��
2024/04/28,06:20,0.507,0.773,0.484,0.955,0.692,0.315,0.551,0.516,�k,3.2,��
2024/04/28,06:30,0.508,0.772,0.485,0.957,0.692,0.315,0.551,0.518,�k�k��,2.8,��
2024/04/28,06:40,0.509,0.772,0.486,0.956,0.693,0.315,0.551,0.517,�k,3.1,��
2024/04/28,06:50,0.509,0.771,0.485,0.957,0.691,0.316,0.551,0.519,�k,2.3,��
2024/04/28,07:00,0.507,0.772,0.485,0.955,0.694,0.314,0.552,0.518,�k,2.3,��
2024/04/28,07:10,0.511,0.773,0.487,0.956,0.691,0.313,0.550,0.516,�k�k��,2.8,��
2024/04/28,07:20,0.510,0.769,0.486,0.955,0.692,0.312,0.550,0.518,�k,2.6,��
2024/04/28,07:30,0.507,0.772,0.485,0.955,0.692,0.314,0.550,0.517,�k,2.6,��
2024/04/28,07:40,0.507,0.767,0.488,0.957,0.691,0.313,0.549,0.515,�k�k��,2.3,��
2024/04/28,07:50,0.507,0.769,0.486,0.956,0.691,0.313,0.549,0.516,�k�k��,0.6,��
2024/04/28,08:00,0.506,0.771,0.484,0.956,0.692,0.314,0.549,0.514,�k�k��,1.7,��
2024/04/28,08:10,0.506,0.769,0.486,0.955,0.690,0.314,0.551,0.516,�k�k��,1.2,��
2024/04/28,08:20,0.506,0.769,0.482,0.957,0.691,0.314,0.550,0.516,�k�k��,1.2,��
2024/04/28,08:30,0.504,0.771,0.484,0.957,0.690,0.314,0.550,0.516,�k�k��,1.2,��
2024/04/28,08:40,0.506,0.770,0.484,0.955,0.688,0.313,0.551,0.515,�k�k��,2.3,��
2024/04/28,08:50,0.505,0.771,0.482,0.955,0.689,0.314,0.551,0.515,�k�k��,1.7,��
2024/04/28,09:00,0.507,0.771,0.484,0.957,0.689,0.315,0.550,0.516,�k��,1.5,��
2024/04/28,09:10,0.508,0.770,0.482,0.954,0.689,0.314,0.550,0.515,��,1.2,��
2024/04/28,09:20,0.507,0.772,0.483,0.956,0.690,0.314,0.551,0.516,���쓌,1.7,��
2024/04/28,09:30,0.505,0.770,0.482,0.955,0.689,0.315,0.552,0.517,���쓌,1.9,��
2024/04/28,09:40,0.506,0.771,0.484,0.954,0.691,0.312,0.551,0.515,��쓌,2.0,��
2024/04/28,09:50,0.506,0.770,0.484,0.956,0.692,0.314,0.551,0.516,�쓌,2.2,��
2024/04/28,10:00,0.507,0.772,0.484,0.958,0.692,0.315,0.550,0.515,�쓌,2.8,��
2024/04/28,10:10,0.508,0.772,0.484,0.956,0.691,0.314,0.551,0.515,�쓌,2.8,��
2024/04/28,10:20,0.505,0.771,0.485,0.957,0.691,0.314,0.551,0.514,�쓌,3.2,��
2024/04/28,10:30,0.506,0.772,0.483,0.956,0.689,0.313,0.550,0.515,�쓌,3.5,��
2024/04/28,10:40,0.505,0.771,0.483,0.957,0.692,0.314,0.551,0.516,�쓌,4.0,��
2024/04/28,10:50,0.508,0.772,0.483,0.956,0.693,0.313,0.550,0.515,�쓌,4.6,��
2024/04/28,11:00,0.507,0.772,0.484,0.957,0.693,0.313,0.549,0.515,��쓌,5.3,��
2024/04/28,11:10,0.508,0.772,0.483,0.956,0.693,0.315,0.550,0.516,��,4.4,��
2024/04/28,11:20,0.507,0.772,0.485,0.957,0.693,0.314,0.550,0.516,��,5.2,��
2024/04/28,11:30,0.507,0.773,0.484,0.955,0.692,0.314,0.550,0.516,��,5.8,��
2024/04/28,11:40,0.507,0.772,0.486,0.956,0.693,0.314,0.553,0.516,��,5.8,��
2024/04/28,11:50,0.507,0.771,0.486,0.955,0.694,0.315,0.551,0.517,��,6.7,��
2024/04/28,12:00,0.508,0.773,0.485,0.954,0.694,0.315,0.550,0.517,��,6.4,��
2024/04/28,12:10,0.509,0.775,0.485,0.955,0.693,0.314,0.552,0.516,��,5.6,��
2024/04/28,12:20,0.507,0.775,0.485,0.953,0.694,0.315,0.552,0.518,��,6.6,��
2024/04/28,12:30,0.508,0.774,0.485,0.954,0.690,0.315,0.553,0.516,��,6.0,��
2024/04/28,12:40,0.508,0.772,0.485,0.952,0.694,0.315,0.552,0.518,��,6.6,��
2024/04/28,12:50,0.509,0.772,0.484,0.955,0.694,0.316,0.551,0.515,��쓌,6.2,��
2024/04/28,13:00,0.509,0.773,0.485,0.956,0.694,0.316,0.551,0.516,��,6.5,��
2024/04/28,13:10,0.508,0.773,0.486,0.956,0.695,0.315,0.552,0.516,��,6.6,��
2024/04/28,13:20,0.507,0.773,0.486,0.958,0.694,0.314,0.553,0.516,��쓌,6.4,��
2024/04/28,13:30,0.509,0.773,0.485,0.957,0.695,0.315,0.554,0.515,��,5.3,��
2024/04/28,13:40,0.510,0.774,0.487,0.959,0.696,0.315,0.554,0.515,��,6.5,��
2024/04/28,13:50,0.509,0.776,0.485,0.958,0.696,0.315,0.554,0.515,��,6.0,��
2024/04/28,14:00,0.507,0.774,0.485,0.959,0.696,0.316,0.553,0.517,��,6.1,��
2024/04/28,14:10,0.508,0.775,0.488,0.957,0.697,0.314,0.554,0.515,��,6.2,��
2024/04/28,14:20,0.507,0.774,0.486,0.959,0.696,0.315,0.555,0.517,��,6.5,��
2024/04/28,14:30,0.507,0.773,0.487,0.958,0.696,0.316,0.554,0.516,��,6.6,��
2024/04/28,14:40,0.511,0.776,0.487,0.956,0.696,0.317,0.554,0.517,��,7.0,��
2024/04/28,14:50,0.509,0.775,0.486,0.954,0.696,0.315,0.555,0.515,��,7.0,��
2024/04/28,15:00,0.509,0.774,0.487,0.955,0.698,0.316,0.554,0.516,��,6.7,��
2024/04/28,15:10,0.508,0.775,0.487,0.956,0.696,0.315,0.555,0.516,��,6.8,��
2024/04/28,15:20,0.509,0.775,0.486,0.959,0.695,0.316,0.552,0.516,��,6.9,��
2024/04/28,15:30,0.509,0.774,0.486,0.957,0.695,0.316,0.554,0.517,��,6.2,��
2024/04/28,15:40,0.508,0.775,0.488,0.958,0.694,0.316,0.554,0.517,��,6.7,��
2024/04/28,15:50,0.509,0.774,0.487,0.959,0.697,0.315,0.554,0.517,��,6.8,��
2024/04/28,16:00,0.510,0.774,0.487,0.956,0.696,0.315,0.553,0.515,��,6.8,��
2024/04/28,16:10,0.510,0.775,0.487,0.958,0.695,0.316,0.554,0.516,��,6.8,��
2024/04/28,16:20,0.510,0.773,0.487,0.958,0.694,0.316,0.552,0.517,��,6.1,��
2024/04/28,16:30,0.508,0.773,0.486,0.956,0.696,0.314,0.553,0.516,��,6.2,��
2024/04/28,16:40,0.509,0.775,0.486,0.958,0.695,0.315,0.553,0.517,��,6.1,��
2024/04/28,16:50,0.508,0.775,0.487,0.959,0.696,0.316,0.553,0.517,��,7.1,��
2024/04/28,17:00,0.510,0.772,0.487,0.957,0.695,0.317,0.554,0.516,��,7.0,��
2024/04/28,17:10,0.510,0.773,0.486,0.959,0.696,0.316,0.552,0.517,��,8.7,��
2024/04/28,17:20,0.509,0.775,0.486,0.956,0.696,0.316,0.553,0.516,��,9.5,��
2024/04/28,17:30,0.509,0.774,0.488,0.958,0.697,0.317,0.552,0.516,��,10.3,��
2024/04/28,17:40,0.509,0.775,0.487,0.961,0.695,0.316,0.552,0.516,��,9.0,��
2024/04/28,17:50,0.508,0.779,0.486,0.960,0.695,0.316,0.551,0.518,��,9.2,��
2024/04/28,18:00,0.507,0.775,0.487,0.961,0.697,0.317,0.551,0.518,��,9.6,��
2024/04/28,18:10,0.508,0.778,0.485,0.960,0.695,0.316,0.553,0.518,��,9.1,��
2024/04/28,18:20,0.509,0.776,0.486,0.961,0.696,0.317,0.552,0.519,��,7.2,��
2024/04/28,18:30,0.508,0.778,0.485,0.960,0.696,0.316,0.554,0.518,��,7.3,��
2024/04/28,18:40,0.510,0.777,0.486,0.962,0.696,0.317,0.554,0.518,��,6.3,��
2024/04/28,18:50,0.508,0.778,0.486,0.962,0.696,0.317,0.554,0.519,��,4.7,��
2024/04/28,19:00,0.509,0.777,0.488,0.962,0.697,0.315,0.555,0.519,��,6.5,��
2024/04/28,19:10,0.508,0.779,0.490,0.963,0.697,0.317,0.554,0.518,��,8.3,��
2024/04/28,19:20,0.510,0.778,0.488,0.960,0.698,0.316,0.553,0.519,��,7.8,��
2024/04/28,19:30,0.510,0.778,0.488,0.962,0.699,0.316,0.552,0.520,��,7.1,��
2024/04/28,19:40,0.510,0.777,0.489,0.962,0.698,0.315,0.553,0.519,��,6.6,��
2024/04/28,19:50,0.510,0.777,0.489,0.962,0.698,0.317,0.553,0.518,��쐼,5.9,��
2024/04/28,20:00,0.511,0.777,0.487,0.962,0.698,0.317,0.554,0.518,��,6.2,��
2024/04/28,20:10,0.509,0.778,0.488,0.961,0.698,0.317,0.554,0.518,��쐼,5.4,��
2024/04/28,20:20,0.511,0.779,0.489,0.964,0.700,0.317,0.554,0.518,��,4.2,��
2024/04/28,20:30,0.510,0.779,0.490,0.961,0.699,0.317,0.553,0.520,��,4.0,��
2024/04/28,20:40,0.510,0.777,0.488,0.961,0.702,0.317,0.552,0.519,��,3.8,��
2024/04/28,20:50,0.510,0.778,0.488,0.961,0.699,0.316,0.553,0.518,��,3.1,��
2024/04/28,21:00,0.512,0.775,0.489,0.960,0.697,0.317,0.554,0.517,��,3.2,��
2024/04/28,21:10,0.511,0.778,0.489,0.962,0.698,0.317,0.554,0.517,��,3.0,��
2024/04/28,21:20,0.511,0.778,0.489,0.961,0.698,0.317,0.553,0.517,��,1.7,��
2024/04/28,21:30,0.510,0.776,0.488,0.960,0.698,0.317,0.553,0.517,�쐼,0.9,��
2024/04/28,21:40,0.511,0.775,0.487,0.960,0.698,0.317,0.556,0.519,��,0.9,��
2024/04/28,21:50,0.511,0.778,0.488,0.962,0.700,0.317,0.554,0.518,��쐼,0.9,��
2024/04/28,22:00,0.511,0.777,0.488,0.961,0.697,0.316,0.555,0.518,��,2.0,��
2024/04/28,22:10,0.510,0.775,0.488,0.961,0.697,0.317,0.555,0.517,��,2.0,��
2024/04/28,22:20,0.511,0.776,0.488,0.961,0.699,0.317,0.556,0.518,��쐼,1.5,��
2024/04/28,22:30,0.510,0.777,0.489,0.962,0.699,0.317,0.556,0.519,��쓌,1.4,��
2024/04/28,22:40,0.512,0.778,0.488,0.961,0.698,0.316,0.556,0.517,��,2.6,��
2024/04/28,22:50,0.511,0.778,0.490,0.961,0.699,0.316,0.557,0.517,��쐼,1.7,��
2024/04/28,23:00,0.510,0.775,0.489,0.960,0.698,0.316,0.554,0.520,��쐼,2.2,��
2024/04/28,23:10,0.510,0.777,0.488,0.962,0.699,0.318,0.556,0.518,�쐼,1.7,��
2024/04/28,23:20,0.511,0.776,0.488,0.962,0.699,0.318,0.555,0.517,��,1.2,��
2024/04/28,23:30,0.512,0.778,0.488,0.963,0.698,0.317,0.556,0.518,�쐼,0.8,��
2024/04/28,23:40,0.511,0.777,0.488,0.962,0.697,0.317,0.556,0.518,��쐼,1.2,��
2024/04/28,23:50,0.509,0.776,0.487,0.962,0.697,0.317,0.556,0.518,���쐼,1.7,��
